Ali Gholizadeh

Chief Scout - Zob Ahan
22 Feb 2027
Monday
Process

Personality

Adaptability (5) Ambition (1) Controversy (19) Loyalty (7) Pressure (12) Professionalism (8) Sportsmanship (14) Temperament (14)

Profile

Coaching Style Democratic
License Continental Pro
Determination 12
Man Management 10
Motivating 8
Discipline 11
Job Satisfaction
85%
Fatigue
0%
Role Chief Scout
Wage 75.5K p/w
Contract 14.03.2029

Performance

Behaviour Good
Training Effectiveness
32%
Player Development
35%
Injury Prevention
50%
Tactical Implementation
35%

Recent Events

Attended a recruitment meeting now
Assessed a player now
Assessed a player now
Assessed a player now
Assessed a player now
Assessed a player now
Assessed a player 7d ago
Assessed a player 7d ago

Currently Monitoring

241
Player Club Status Ability Confidence Watched Last Observed Latest Vote
Ali Soliman Masr El Makasa Active 120 / 125 40% 4 21.02.2027 -
John Okoye Ebuka Ittihad Active 118 / 105 40% 2 21.02.2027 -
Fábio Tavares Newport County Active 88 / 99 40% 2 21.02.2027 -
Deano Van Rooyen Ajax Cape Town Active 111 / 106 40% 5 20.02.2027 -
Edarlyn Reyes Arsenal Tula Active 115 / 107 40% 5 20.02.2027 -
Velemseni Ndwandwe Golden Arrows Active 108 / 90 40% 6 20.02.2027 -
Achraf Bencharki Al Ahly Active 130 / 111 40% 1 19.02.2027 -
CJ Hamilton Blackpool Active 110 / 92 40% 1 19.02.2027 -
Thabo Nodada Maritzburg United Active 95 / 113 40% 2 18.02.2027 -
Reece Cole Northampton Town Active 97 / 101 40% 1 18.02.2027 -
Dumisani Zuma Bidvest Wits Active 105 / 94 40% 2 17.02.2027 -
Akinkunmi Amoo Ismaily Active 117 / 106 40% 2 17.02.2027 -
Teboho Tlolane Golden Arrows Active 100 / 95 40% 1 17.02.2027 -
Nduduzo Sibiya Golden Arrows Active 127 / 102 40% 5 16.02.2027 -
Adil Taoui Lokomotiv Sofia Active 115 / 100 40% 5 16.02.2027 -
Wilder Cartagena Persepolis Active 116 / 118 40% 1 16.02.2027 -
Ben Garrity Port Vale Active 114 / 126 40% 1 16.02.2027 -
Piotr Samiec-Talar Slask Active 121 / 112 40% 1 16.02.2027 -
Pablo Castro UCSA Active 87 / 108 40% 1 16.02.2027 -
Jack Currie Oxford United Active 122 / 137 40% 4 14.02.2027 -
Daniel Kyerewaa Reading Active 116 / 103 40% 1 14.02.2027 -
Yassine Benzia Al-Fayha Active 130 / 128 40% 1 14.02.2027 -
Caio Lucas Al Ain Active 126 / 133 40% 1 14.02.2027 -
Siyanda Msani University of Pretoria Active 115 / 93 40% 1 14.02.2027 -
Gavin Kilkenny Swindon Town Active 119 / 119 40% 1 14.02.2027 -
Andrey Mazurin Yenisey Active 99 / 110 40% 3 12.02.2027 -
Saymon Dibba Active 106 / 110 40% 2 12.02.2027 -
Dmitry Tsypchenko Torpedo Moscow Active 110 / 108 40% 1 12.02.2027 -
Kyreece Lisbie Colchester United Active 96 / 102 40% 2 11.02.2027 -
Oleksandr Yatsyk Metalist Active 118 / 126 40% 1 11.02.2027 -
Erick Ngcobo Black Aces Active 100 / 123 40% 6 10.02.2027 -
Bradley Mothiba SuperSport United Active 98 / 114 40% 1 10.02.2027 -
Jewison Bennette LNZ Active 100 / 130 40% 1 10.02.2027 -
Odiljon Hamrobekov Tractor Active 110 / 112 40% 5 08.02.2027 -
Mohammad Karimi Al-Khaleej Active 105 / 111 40% 6 08.02.2027 -
Ibrahim Tarek Masr El Makasa Active 117 / 105 40% 1 08.02.2027 -
Jay Matete Milton Keynes Dons Active 102 / 104 40% 2 07.02.2027 -
Jack Payne Crewe Alexandra Active 106 / 103 40% 1 07.02.2027 -
Milad Sarlak Foolad Active 112 / 98 40% 3 06.02.2027 -
Ibrahim Cissoko Zwolle Active 131 / 113 40% 1 06.02.2027 -
Gift Mothiba Black Aces Active 95 / 105 40% 2 05.02.2027 -
Jordan Graham Newport County Active 119 / 124 40% 1 05.02.2027 -
Kyle John Port Vale Active 97 / 122 40% 2 04.02.2027 -
Jason Al-Fayha Active 121 / 114 40% 2 04.02.2027 -
Zizo Al Ahly Active 143 / 119 40% 1 03.02.2027 -
Abbubaker Mobara Chippa United Active 122 / 109 40% 1 02.02.2027 -
Gift Ngcobo SuperSport United Active 120 / 120 40% 4 01.02.2027 -
Vitalii Dakhnovskyi Bukovyna Active 99 / 115 40% 4 31.01.2027 -
Abderrahim Deghmoum El Masry Active 105 / 111 40% 1 31.01.2027 -
Celso Sidney Cherno More Active 91 / 106 40% 1 26.01.2027 -
Felix Kudus Hasaacas Active 87 / 95 40% 1 26.01.2027 -
Xande Spartak 1918 Active 113 / 94 40% 1 25.01.2027 -
Ondrej Duda Zamalek Active 123 / 129 40% 1 25.01.2027 -
Franco Romero Kryvbas Active 104 / 86 40% 1 25.01.2027 -
Agustín Ramírez Inter Active 117 / 89 40% 4 23.01.2027 -
Danil Lipovoy Ufa Active 88 / 79 40% 2 23.01.2027 -
Mohammad Reza Ghobeishavi Saba Active 92 / 112 40% 3 23.01.2027 -
Yaroslav Karabin Karpaty Active 98 / 118 40% 2 23.01.2027 -
Mark Helm Fleetwood Town Active 115 / 91 40% 1 23.01.2027 -
Branislav Knežević Zeleznicar Pancevo Active 92 / 111 40% 1 22.01.2027 -
Kagiso Malinga Bidvest Wits Active 100 / 94 40% 1 19.01.2027 -
Phakamani Mahlambi Bloemfontein Celtic Active 91 / 116 40% 1 19.01.2027 -
Ihor Krasnopir Polissia Active 115 / 99 40% 2 18.01.2027 -
Juan Bezerra Zamalek Active 111 / 110 40% 1 18.01.2027 -
Thabang Matuludi Polokwane City Active 98 / 123 40% 5 14.01.2027 -
Alexander Díaz Deportivo Riestra Active 112 / 129 40% 1 14.01.2027 -
Đorđe Pantelić Spartak Kostroma Active 117 / 103 40% 4 13.01.2027 -
Ghaem Eslamikhah Malavan Lost 97 / 110 65% 1 11.01.2027 Approve
Gilson Benchimol Akron Active 101 / 94 40% 4 09.01.2027 -
Andrea Ciofi Cesena Active 135 / 122 40% 1 09.01.2027 -
Kirill Schetinin Akhmat Grozny Active 122 / 130 40% 1 08.01.2027 -
Azola Matrose Chippa United Active 108 / 101 40% 1 08.01.2027 -
Jonathan Sulemana BA All Stars Active 111 / 102 40% 3 07.01.2027 -
Oleksandr Drambaiev LNZ Active 108 / 104 40% 2 07.01.2027 -
Alan Tsaraev Arsenal Tula Active 91 / 119 40% 1 05.01.2027 -
Solly Khunyedi Bloemfontein Celtic Active 95 / 96 40% 1 05.01.2027 -
Charlie Webster Burton Albion Rejected 106 / 102 40% 2 03.01.2027 Needs More Info
Tomasz Wójtowicz Lechia Active 102 / 115 40% 1 02.01.2027 -
Carlos Paraco Metalist Active 98 / 106 40% 1 02.01.2027 -
Arinaldo Rrapaj Kolos Active 109 / 103 40% 1 02.01.2027 -
Connor Barrett Walsall Active 89 / 98 40% 1 01.01.2027 -
Yevhen Pidlepenets Bukovyna Active 114 / 89 40% 3 30.12.2026 -
Đorđe Ivanović AE Kition Active 109 / 130 40% 3 28.12.2026 -
Luca Connell Barnsley Active 127 / 124 40% 2 28.12.2026 -
Ekain Orobengoa Real Sociedad Active 90 / 85 40% 1 28.12.2026 -
Alfa Semedo Al-Fayha Rejected 121 / 117 40% 1 27.12.2026 Needs More Info
Denys Antiukh Metalist Active 101 / 118 40% 1 27.12.2026 -
Faiz Mattoir Septemvri Active 106 / 102 40% 3 23.12.2026 -
Leandro Gatti Haladas Active 103 / 116 40% 1 23.12.2026 -
Nicolás Giménez Al Wasl Active 120 / 117 40% 1 23.12.2026 -
Lindon Emërllahu Polissia Active 130 / 109 40% 1 23.12.2026 -
Owen Bailey Doncaster Rovers Active 105 / 118 40% 1 23.12.2026 -
Tyrese Shade Burton Albion Active 88 / 80 40% 1 22.12.2026 -
Karim El Berkaoui Al Dhafra Active 118 / 110 40% 3 20.12.2026 -
Lebogang Zwane Black Aces Active 96 / 108 40% 5 19.12.2026 -
Yehor Tverdokhlib LNZ Rejected 116 / 128 40% 2 19.12.2026 Needs More Info
Mohammad Reza Soleimani Foolad Active 108 / 97 40% 6 18.12.2026 -
Samuel MFK Michalovce Active 99 / 88 40% 3 18.12.2026 -
Vladislav Sarveli Nizhniy Novgorod Active 105 / 116 40% 2 17.12.2026 -
Charles Vernam Grimsby Town Active 117 / 114 40% 1 17.12.2026 -
Ramazan Gadjimuradov Chelyabinsk Active 100 / 103 40% 1 17.12.2026 -
Luis Orejuela Ferencvaros Active 118 / 132 40% 3 16.12.2026 -
Carlos Gutiérrez Montana Active 112 / 88 40% 4 16.12.2026 -
Malebogo Modise Polokwane City Active 101 / 102 40% 1 15.12.2026 -
Alexander Mojžiš MFK Ruzomberok Active 104 / 107 40% 1 15.12.2026 -
Vitalii Kholod Karpaty Active 116 / 113 40% 1 14.12.2026 -
Yanis Hamache MC Oran Rejected 111 / 96 40% 1 14.12.2026 Needs More Info
Bruno Silva Gabala Active 120 / 116 40% 1 13.12.2026 -
Ryan Leijten Lokomotiv Plovdiv Active 111 / 125 40% 1 13.12.2026 -
Miroslav Pekarik FK Senica Active 110 / 109 40% 2 10.12.2026 -
Stefan Lončar Akron Active 112 / 132 40% 1 10.12.2026 -
Leo Goglichidze Rodina Active 119 / 104 40% 3 09.12.2026 -
Dániel Lukács Puskas Akademia Active 109 / 96 40% 1 09.12.2026 -
Tom Pearce Chesterfield Active 114 / 112 40% 1 09.12.2026 -
Dean Campbell Northampton Town Active 115 / 96 40% 1 08.12.2026 -
Vladimir Khubulov Dinamo Makhachkala Active 98 / 127 40% 3 07.12.2026 -
Braian Álvarez Arsenal Tula Active 110 / 115 40% 1 07.12.2026 -
Josip Mitrović Slaven Belupo Active 111 / 134 40% 1 07.12.2026 -
Victor Gey Vasas Active 95 / 88 40% 1 06.12.2026 -
Robert Skubic NK Domzale Active 97 / 106 40% 1 06.12.2026 -
Artem Makarchuk Sochi Active 114 / 108 40% 1 05.12.2026 -
Dominik Kostka MFK Ruzomberok Active 109 / 99 40% 1 04.12.2026 -
Leandrinho Sharjah Active 110 / 105 40% 2 02.12.2026 -
Patrick Kyereh Liberty Professionals Active 103 / 104 40% 1 02.12.2026 -
Luka Khorkheli Spartak Trnava Active 106 / 109 40% 1 02.12.2026 -
Bernard Mensah Wa All Stars Active 111 / 108 40% 1 02.12.2026 -
Imad Faraj Neftchi Active 99 / 101 40% 1 02.12.2026 -
Rifat Zhemaletdinov Ural Active 117 / 111 40% 2 30.11.2026 -
Kristian Eriksen Molde Active 139 / 116 40% 2 29.11.2026 -
Valentin Yefimov Ravan Active 127 / 131 40% 1 29.11.2026 -
Alessandro Albanese Egnatia Rrogozhinë Active 103 / 95 40% 1 29.11.2026 -
Thulani Phiri Platinum Stars Active 97 / 124 40% 1 29.11.2026 -
Afonso Rodrigues Egnatia Rrogozhinë Active 114 / 111 40% 1 28.11.2026 -
Francisco Varela Beroe Active 107 / 117 40% 1 28.11.2026 -
Dániel Gera Persepolis Active 114 / 101 40% 3 26.11.2026 -
Leeroy Owusu ES Setif Active 110 / 105 40% 2 26.11.2026 -
Henrik Bjørdal Valerenga Active 129 / 119 40% 2 26.11.2026 -
Rodin Quiñónes Dinamo Batumi Active 116 / 112 40% 4 25.11.2026 -
Jakob Dunsby Sandefjord Active 121 / 126 40% 2 25.11.2026 -
Giorgi Papunashvili Zira Active 104 / 93 40% 2 23.11.2026 -
Waldo AE Kition Active 119 / 112 40% 1 23.11.2026 -
Ben Cottrell MFK Michalovce Active 108 / 112 40% 1 21.11.2026 -
Dávid Ďuriš Rosenborg Active 119 / 119 40% 1 21.11.2026 -
Andile Zungu Platinum Stars Active 93 / 113 40% 3 20.11.2026 -
Julián Palacios Unión de Santa Fe Active 119 / 110 40% 3 19.11.2026 -
Ronaldo Maarman University of Pretoria Active 90 / 114 40% 1 19.11.2026 -
Jonas Auer Rapid Wien Active 116 / 126 40% 1 17.11.2026 -
Bathusi Aubaas Mamelodi Sundowns Active 111 / 119 40% 1 14.11.2026 -
Kermit Manyama Ajax Cape Town Active 91 / 114 40% 1 13.11.2026 -
Jean Charles Ahoua Al-Faisaly Active 103 / 98 40% 1 13.11.2026 -
Josef Baccay Odd Active 121 / 117 40% 1 13.11.2026 -
Rok Stojanovic NK Domzale Active 108 / 92 40% 2 12.11.2026 -
Luke Baartman Chippa United Active 101 / 92 40% 1 12.11.2026 -
Stefan Skrbo Spartak Trnava Active 95 / 116 40% 1 11.11.2026 -
Mpho Mathebula Bloemfontein Celtic Active 90 / 95 40% 1 11.11.2026 -
Rodney Maphangule Polokwane City Active 93 / 110 40% 2 09.11.2026 -
Peter Reinhardsen Sarpsborg 08 Active 109 / 109 40% 1 09.11.2026 -
Sinoxolo Kwayiba Chippa United Active 103 / 118 40% 1 09.11.2026 -
Ten Miyagi Molde Active 109 / 102 40% 1 07.11.2026 -
Saeed Al Naqbi Al Ahli Active 127 / 119 40% 1 07.11.2026 -
Matías Pellegrini Vélez Active 114 / 115 40% 1 06.11.2026 -
Caleb Zady Sery Molde Active 113 / 117 40% 1 05.11.2026 -
Rafael Arace Najran Active 118 / 112 40% 2 03.11.2026 -
Milan Tučić Honved Active 102 / 116 40% 1 03.11.2026 -
Thabiso Monyane Kaizer Chiefs Active 98 / 104 40% 1 01.11.2026 -
Maximiliano Rueda Patronato Active 103 / 123 40% 1 01.11.2026 -
Franco Cristaldo Talleres Active 118 / 136 40% 4 29.10.2026 -
Lebogang Erasmus Platinum Stars Active 98 / 94 40% 4 28.10.2026 -
Valentín Depietri Talleres Active 130 / 113 40% 2 28.10.2026 -
Brooklyn Poggenpoel Maritzburg United Active 95 / 118 40% 3 28.10.2026 -
Franchu CSKA Moscow Active 107 / 128 40% 1 28.10.2026 -
Mitch Clark Port Vale Active 91 / 114 40% 1 28.10.2026 -
Mandla Dala SuperSport United Active 99 / 112 40% 2 26.10.2026 -
Keagan Manyama Ajax Cape Town Active 101 / 136 40% 3 26.10.2026 -
Milán Tóth Vasas Active 104 / 115 40% 1 26.10.2026 -
Uerdi Mara Qarabag Active 115 / 113 40% 1 25.10.2026 -
Lautaro Ríos Banfield Active 113 / 117 40% 1 25.10.2026 -
Zakaria Naïdji MC Alger Active 100 / 117 40% 1 24.10.2026 -
Claudio Salto Almagro Active 105 / 109 40% 1 24.10.2026 -
Lukáš Juliš MSK Zilina Active 115 / 116 40% 2 23.10.2026 -
Juan Pablo Barinaga Patronato Active 115 / 99 40% 2 22.10.2026 -
Valentín Fenoglio Estudiantes Active 116 / 107 40% 1 22.10.2026 -
Alejandro Melo Temperley Active 116 / 115 40% 1 20.10.2026 -
Jean-Philippe Gbamin CSKA Sofia Active 114 / 129 40% 1 20.10.2026 -
Francisco González Metilli Belgrano Active 129 / 122 40% 5 18.10.2026 -
Fawaaz Basadien Mamelodi Sundowns Active 126 / 98 40% 1 18.10.2026 -
Petar Mićin Valerenga Active 115 / 101 40% 1 14.10.2026 -
Erlend Dahl Reitan IK Start Active 105 / 116 40% 1 13.10.2026 -
Felipe Pires Torpedo Kutaisi Active 100 / 118 40% 1 11.10.2026 -
Andreas Gruber DAC Dunajska Streda Active 119 / 134 40% 3 10.10.2026 -
Ylldren Ibrahimaj Lillestrom Active 114 / 92 40% 1 10.10.2026 -
David Gallardo Gimnasia y Esgrima Active 104 / 103 40% 1 09.10.2026 -
David Barbona Defensa y Justicia Active 132 / 132 40% 3 08.10.2026 -
Simon Ramabu Polokwane City Active 94 / 101 40% 3 08.10.2026 -
Tibor Halilović Tractor Active 119 / 109 40% 2 07.10.2026 -
Santiago Guzmán Sepahan Active 98 / 110 40% 1 06.10.2026 -
Nodar Lominadze Torpedo Kutaisi Active 110 / 105 40% 1 06.10.2026 -
Bandile Shandu Orlando Pirates Active 112 / 98 40% 1 03.10.2026 -
François Kamano Sochi Active 118 / 107 40% 1 01.10.2026 -
Adalberto Peñaranda Deportivo Tachira Active 113 / 105 40% 1 30.09.2026 -
Gonzalo Asis Almagro Active 121 / 108 40% 2 29.09.2026 -
Andreas Nibe Sarpsborg 08 Active 122 / 135 40% 1 29.09.2026 -
Örvar Eggertsson Stjarnan Active 109 / 118 40% 1 28.09.2026 -
Lyes Houri Dinamo Tbilisi Active 107 / 118 40% 1 26.09.2026 -
Ramiro Ruiz Rodríguez Atlético Tucumán Active 116 / 112 40% 1 26.09.2026 -
Mohammad Khodabandelou Persepolis Active 102 / 111 40% 2 24.09.2026 -
Alexandr Yushin Torpedo Moscow Active 93 / 98 40% 2 24.09.2026 -
Sadegh Moharrami Tractor Active 117 / 109 40% 1 22.09.2026 -
Daniel Valencia America de Cali Active 111 / 125 40% 1 21.09.2026 -
Jesús Yendis Caracas Active 101 / 117 40% 1 19.09.2026 -
Mfundo Vilakazi Kaizer Chiefs Active 110 / 102 40% 1 15.09.2026 -
Lautaro Lusnig Deportivo Tachira Active 107 / 109 40% 1 15.09.2026 -
Mauricio Cardillo San Lorenzo Active 120 / 124 40% 1 14.09.2026 -
Adrián Fernández Racing Club Active 116 / 130 40% 1 14.09.2026 -
Masindi Nemtajela Orlando Pirates Active 98 / 90 40% 1 13.09.2026 -
Simphiwe Selepe Orlando Pirates Active 96 / 104 40% 1 10.09.2026 -
Franco Torres Gimnasia La Plata Active 121 / 122 40% 1 09.09.2026 -
Aubrey Modiba Mamelodi Sundowns Active 132 / 107 40% 1 08.09.2026 -
Mamadou Loum Gijón Active 100 / 92 40% 1 07.09.2026 -
Goodman Mosele Chippa United Active 95 / 117 40% 1 07.09.2026 -
Juan Pablo Gallego Fehervar Active 96 / 113 40% 1 02.09.2026 -
Axel Leiva Independiente Rivadavia Active 91 / 96 40% 1 01.09.2026 -
Jorge Georgieff Estudiantes Active 84 / 96 40% 1 01.09.2026 -
Agustín Alvez San Lorenzo Active 93 / 106 40% 1 31.08.2026 -
Rachid Moumini Sumgayit Active 105 / 117 40% 1 31.08.2026 -
Carlos Sosa Carabobo Active 117 / 109 40% 1 27.08.2026 -
Sondre Brunstad Fet Bodo/Glimt Active 124 / 119 40% 1 26.08.2026 -
Kyle Jurgens Maritzburg United Active 103 / 100 40% 1 26.08.2026 -
Kevin Medina Córdoba Active 116 / 111 40% 1 25.08.2026 -
Manu Sánchez Ceuta Active 118 / 92 40% 1 23.08.2026 -
Mehdi Limouchi Sepahan Active 107 / 114 40% 1 22.08.2026 -
Erickson Gallardo Zamora Active 108 / 123 40% 1 19.08.2026 -
Haashim Domingo Maritzburg United Active 101 / 114 40% 1 18.08.2026 -
Majid Aliyari Sepahan Active 113 / 106 40% 1 17.08.2026 -
Richard Celis Zamora Active 111 / 119 40% 1 17.08.2026 -
Joaquín Rivero Instituto Active 83 / 102 40% 1 04.08.2026 -
Emmanuel Dung Bendel Insurance Active 89 / 93 40% 1 04.08.2026 -
Martín Ortega Newell's Old Boys Active 128 / 126 40% 1 02.08.2026 -
Joaquín Tobio Burgos Estudiantes Active 108 / 123 40% 1 02.08.2026 -
Jorge Morel Cerro Porteno Active 116 / 117 40% 1 01.08.2026 -
Tobías Cervera Gimnasia y Esgrima Active 124 / 106 40% 1 01.08.2026 -